Location: ????????
(55.6189°N, 38.3031°E)
Time: 23:27:52
(UTC+00:00)

Cosmos 2237 Rocket - Pass Details

Date: 15 November 2019
Orbit: 834 x 850 km, 71.0° (Epoch: 14 December)

Event Time Altitude Azimuth Distance (km) Brightness Sun altitude
Exits shadow 03:37:47 - 328° (NNW) 2,844 4.5 -11.5°
Reaches altitude 10° 03:38:48 10° 332° (NNW) 2,489 4.2 -11.3°
Maximum altitude 03:44:07 38° 40° (NE) 1,274 3.4 -10.6°
Drops below altitude 10° 03:49:24 10° 108° (ESE) 2,471 6.3 -9.9°
Sets 03:52:01 0° 116° (ESE) 3,401 7.5 -9.5°
